DW1410 Weather Reports


Display with metric or nautical units.
time (UTC)temp
F
wind
direction
speed
MPH
gust
MPH
rain 1hr
in
rain 24hr
in
rain mn
in
humidity
%
barometer
mb
20260507090100 53 178 0.0 8.0 0.00 0.00 0.00 28 1014.0
20260507090004 53 178 0.0 8.0 0.00 0.00 0.00 28 1014.0
20260507084503 53 184 3.0 8.0 0.00 0.00 0.00 28 1014.0
20260507083001 52 195 3.0 8.0 0.00 0.00 0.00 29 1014.0
20260507081503 51 200 1.0 5.0 0.00 0.00 0.00 31 1014.1
20260507080003 51 302 2.0 6.0 0.00 0.00 0.00 30 1014.1
20260507074500 50 305 0.0 5.0 0.00 0.00 0.00 32 1014.1
20260507073001 50 281 3.0 6.0 0.00 0.00 0.00 33 1014.1
20260507071500 50 279 1.0 6.0 0.00 0.00 0.00 33 1014.3
20260507070011 50 54 1.0 7.0 0.00 0.00 0.00 34 1014.1
20260507064501 48 85 1.0 5.0 0.00 0.00 0.00 35 1014.1
20260507063000 47 37 1.0 9.0 0.00 0.00 0.00 39 1014.2
20260507061502 46 24 4.0 8.0 0.00 0.00 0.00 40 1014.3
20260507060003 45 85 2.0 9.0 0.00 0.00 0.00 44 1014.2
20260507054500 43 37 3.0 8.0 0.00 0.00 0.00 47 1014.1
20260507053001 42 26 3.0 7.0 0.00 0.00 0.00 50 1014.0
20260507051501 40 59 3.0 8.0 0.00 0.00 0.00 52 1014.1
20260507050002 39 26 3.0 6.0 0.00 0.00 0.00 54 1014.1
20260507044500 37 72 3.0 7.0 0.00 0.00 0.00 55 1014.1
20260507043001 36 49 3.0 6.0 0.00 0.00 0.00 56 1014.1
20260507041500 35 28 3.0 6.0 0.00 0.00 0.00 58 1014.2
20260507040004 34 38 4.0 7.0 0.00 0.00 0.00 60 1014.1
20260507034500 33 42 2.0 6.0 0.00 0.00 0.00 62 1014.1
20260507033101 32 29 2.0 4.0 0.00 0.00 0.00 63 1014.1
20260507031600 30 34 3.0 6.0 0.00 0.00 0.00 64 1014.0
20260507030101 29 28 3.0 5.0 0.00 0.00 0.00 66 1013.9
20260507030006 29 47 3.0 5.0 0.00 0.00 0.00 67 1013.9
20260507024601 29 42 2.0 5.0 0.00 0.00 0.00 67 1014.0
20260507023110 29 42 2.0 5.0 0.00 0.00 0.00 68 1013.9
20260507021601 29 42 3.0 5.0 0.00 0.00 0.00 68 1014.0
20260507020105 29 53 2.0 4.0 0.00 0.00 0.00 68 1013.9
20260507020003 29 63 2.0 4.0 0.00 0.00 0.00 68 1013.9
20260507014602 29 42 2.0 4.0 0.00 0.00 0.00 68 1013.7
20260506231502 29 355 0.0 1.0 0.00 0.00 0.00 71 1013.0
20260506230004 29 355 1.0 3.0 0.00 0.00 0.00 70 1012.9
20260506224501 29 355 0.0 2.0 0.00 0.00 0.00 71 1013.0
20260506223001 30 355 1.0 2.0 0.00 0.00 0.00 70 1013.0
20260506221501 31 355 0.0 2.0 0.00 0.00 0.00 68 1012.8
20260506220003 31 355 0.0 2.0 0.00 0.00 0.00 67 1012.8
20260506214559 31 355 0.0 2.0 0.00 0.00 0.00 67 1012.8
20260506213103 32 355 0.0 1.0 0.00 0.00 0.00 64 1012.7
20260506211559 33 355 1.0 2.0 0.00 0.00 0.00 63 1012.7
20260506210007 34 355 0.0 2.0 0.00 0.00 0.00 60 1012.6
20260506204602 34 355 1.0 2.0 0.00 0.00 0.00 59 1012.6
20260506203122 35 355 0.0 2.0 0.00 0.00 0.00 57 1012.6
20260506201559 36 355 0.0 2.0 0.00 0.00 0.00 57 1012.7
20260506200001 37 355 0.0 2.0 0.00 0.00 0.00 54 1012.7
20260506194601 38 355 0.0 3.0 0.00 0.00 0.00 50 1012.8
20260506193106 39 290 0.0 1.0 0.00 0.00 0.00 49 1012.7
20260506191559 40 290 0.0 1.0 0.00 0.00 0.00 48 1012.6
20260506190002 41 290 0.0 0.0 0.00 0.00 0.00 45 1012.6
20260506184600 43 290 0.0 0.0 0.00 0.00 0.00 40 1012.5
20260506183109 44 290 0.0 2.0 0.00 0.00 0.00 38 1012.4
20260506181604 45 296 0.0 2.0 0.00 0.00 0.00 37 1012.5
20260506180100 46 273 0.0 5.0 0.00 0.00 0.00 36 1012.4
20260506180003 46 273 0.0 5.0 0.00 0.00 0.00 35 1012.4
20260506174600 47 285 0.0 4.0 0.00 0.00 0.00 36 1012.3
20260506173110 47 282 1.0 5.0 0.00 0.00 0.00 34 1012.2
20260506171600 48 290 2.0 4.0 0.00 0.00 0.00 32 1012.2
20260506170110 49 314 1.0 5.0 0.00 0.00 0.00 31 1012.2
20260506170001 49 314 2.0 5.0 0.00 0.00 0.00 31 1012.1
20260506164625 49 275 2.0 6.0 0.00 0.00 0.00 31 1012.0
20260506163109 49 234 1.0 4.0 0.00 0.00 0.00 30 1012.0
20260506161601 49 293 0.0 7.0 0.00 0.00 0.00 31 1011.9
20260506160127 50 278 0.0 8.0 0.00 0.00 0.00 30 1011.9
20260506160003 50 278 1.0 8.0 0.00 0.00 0.00 30 1011.9
20260506154600 50 268 2.0 7.0 0.00 0.00 0.00 29 1011.9
20260506153100 50 286 3.0 8.0 0.00 0.00 0.00 29 1011.9
20260506151605 50 267 2.0 5.0 0.00 0.00 0.00 28 1011.9
20260506150108 50 312 2.0 9.0 0.00 0.00 0.00 29 1011.9
20260506150002 50 293 1.0 9.0 0.00 0.00 0.00 29 1011.9
20260506144603 51 325 2.0 6.0 0.00 0.00 0.00 27 1012.0
20260506143100 51 165 3.0 6.0 0.00 0.00 0.00 28 1012.0
20260506141600 51 332 2.0 16.0 0.00 0.00 0.00 29 1011.9
20260506140100 51 253 1.0 7.0 0.00 0.00 0.00 29 1012.0
20260506140002 51 253 3.0 7.0 0.00 0.00 0.00 28 1012.0
20260506134600 51 286 3.0 11.0 0.00 0.00 0.00 27 1012.0
20260506133115 52 240 2.0 11.0 0.00 0.00 0.00 28 1012.1
20260506131616 53 207 2.0 6.0 0.00 0.00 0.00 28 1012.0
20260506130100 51 330 2.0 7.0 0.00 0.00 0.00 27 1011.9
20260506130003 51 327 3.0 7.0 0.00 0.00 0.00 26 1012.0
20260506124600 52 309 5.0 13.0 0.00 0.00 0.00 27 1011.9
20260506123100 53 230 2.0 9.0 0.00 0.00 0.00 29 1012.1
20260506121601 51 208 2.0 10.0 0.00 0.00 0.00 29 1012.1
20260506120110 51 288 3.0 8.0 0.00 0.00 0.00 27 1012.0
20260506120004 51 321 4.0 8.0 0.00 0.00 0.00 28 1012.0
20260506114600 50 227 5.0 11.0 0.00 0.00 0.00 27 1012.1
20260506113100 51 321 5.0 10.0 0.00 0.00 0.00 27 1012.1
20260506111559 52 263 2.0 9.0 0.00 0.00 0.00 30 1012.1
20260506110114 52 126 2.0 8.0 0.00 0.00 0.00 32 1011.9
20260506110002 52 309 2.0 8.0 0.00 0.00 0.00 30 1011.9
20260506104614 52 225 2.0 6.0 0.00 0.00 0.00 32 1011.8
20260506103100 52 277 3.0 9.0 0.00 0.00 0.00 34 1011.8
20260506103003 52 285 3.0 9.0 0.00 0.00 0.00 34 1011.8
20260506101600 51 318 2.0 10.0 0.00 0.00 0.00 34 1011.8
20260506100113 51 273 2.0 8.0 0.00 0.00 0.00 36 1011.9
20260506100005 51 257 2.0 8.0 0.00 0.00 0.00 36 1011.8
20260506094604 50 252 2.0 9.0 0.00 0.00 0.00 38 1011.6
20260506093102 47 281 2.0 4.0 0.00 0.00 0.00 43 1011.5
20260506091607 48 305 3.0 9.0 0.00 0.00 0.00 43 1011.5